Location: Bois de la Silve
(44.4667°N, 6.7833°E)
Time: 21:03:36
(UTC+00:00)

IRS-P3 - Pass Details

Date: 14 July 2020
Orbit: 814 x 818 km, 98.8° (Epoch: 14 August)

Event Time Altitude Azimuth Distance (km) Brightness Sun altitude
Rises 01:50:28 0° 17° (NNE) 3,353 8.8 -17.4°
Reaches altitude 10° 01:52:52 10° 21° (NNE) 2,417 7.8 -17.2°
Maximum altitude 01:58:09 61° 101° (ESE) 928 4.5 -16.6°
Enters shadow 02:01:59 19° 178° (S) 1,866 5.5 -16.3°
